GFSGL_sfc_30mbdewp_231.txt.gz
Dewpoint
66 66 66 67 67 68 68 69 70 72 72 72 73 74 74 74 74 72 66 61 59 56 56 55 53 54 49 49 50 49 48 49 45 50 51 53 55 55 55 55 52 53 54
67 67 67 67 67 67 68 68 69 70 71 71 71 73 74 74 75 72 65 60 58 57 56 53 50 50 50 50 47 52 52 51 49 50 51 49 53 54 55 55 53 51 53
67 67 67 68 68 69 68 68 68 69 70 70 70 71 72 74 75 72 65 60 58 57 55 52 50 49 48 52 52 51 50 50 50 49 49 50 51 52 52 54 54 53 52
66 67 68 68 69 68 69 69 69 69 68 69 70 72 74 74 75 71 65 59 57 56 55 52 49 46 53 53 52 52 52 49 50 48 47 48 50 52 52 51 52 52 51
67 67 68 68 68 69 69 69 69 68 68 69 71 73 74 75 75 70 63 58 57 55 50 43 45 51 52 51 50 53 51 49 48 47 47 48 50 50 50 51 52 52 52
67 67 68 68 69 69 70 70 70 70 69 70 72 73 74 73 71 66 61 57 58 52 41 45 51 52 54 55 54 54 53 52 51 49 48 49 50 50 50 51 50 50 49
68 68 68 69 69 69 70 70 70 70 71 71 72 73 74 74 68 62 59 57 56 48 46 49 48 51 52 53 54 53 52 53 53 52 50 50 50 52 51 52 51 51 50
68 68 69 69 69 70 70 71 71 71 72 72 73 74 74 75 65 58 56 56 55 49 46 48 47 52 52 51 51 51 52 52 52 51 52 52 52 52 52 52 52 52 52
68 69 70 70 70 70 71 71 72 72 73 73 73 74 74 71 60 55 56 54 50 47 46 48 49 49 49 49 48 48 50 50 51 51 52 52 51 51 51 51 50 50 49
68 69 70 71 71 71 71 72 73 73 72 72 73 74 74 70 57 53 56 50 45 44 46 49 49 48 47 47 50 51 48 49 50 52 52 52 53 52 51 51 50 49 49
68 69 71 72 72 72 72 73 73 73 72 73 73 75 73 69 59 52 51 48 43 43 41 45 45 48 47 46 51 51 50 49 51 52 51 51 51 51 51 51 51 50 48
68 69 70 71 71 71 72 73 73 73 73 73 73 72 71 69 62 51 48 50 48 45 44 44 48 45 47 48 51 47 49 49 49 50 51 51 51 52 52 52 52 52 52
69 70 71 72 71 72 72 72 72 73 71 72 72 71 69 68 64 53 48 47 48 51 51 51 51 48 49 51 50 48 48 46 46 49 50 51 52 53 52 52 52 53 53
65 67 67 65 67 72 72 71 71 71 70 70 71 71 69 67 66 57 50 48 50 52 53 53 53 53 53 53 50 49 48 44 47 50 50 52 53 52 51 51 50 50 50
65 66 64 65 65 65 68 66 71 71 70 70 71 72 70 68 67 62 57 53 55 56 55 52 50 50 51 51 50 47 48 44 48 52 51 51 50 51 52 51 51 51 50
65 65 65 64 65 63 63 65 58 61 67 69 72 71 71 70 66 59 55 54 55 53 53 52 50 47 47 46 46 45 47 43 45 51 51 51 49 49 51 51 51 50 50
63 64 65 66 58 62 60 64 64 58 54 56 61 65 64 70 63 59 54 53 52 52 53 54 51 47 45 43 43 44 43 43 48 50 51 50 49 48 51 51 51 50 50
63 63 64 66 68 61 63 69 67 66 66 65 58 59 59 55 55 52 51 52 51 53 54 55 52 48 44 41 42 43 44 47 44 47 50 50 49 48 50 51 50 50 51
61 61 63 66 66 66 67 68 68 65 64 61 58 55 53 59 57 55 58 59 55 55 56 54 52 49 44 41 43 46 45 44 43 45 49 49 50 48 48 49 50 50 51
60 60 61 64 65 65 66 66 66 66 65 65 64 59 55 56 56 59 59 61 59 59 59 55 52 50 45 42 44 47 46 44 45 44 47 49 49 49 47 47 48 50 51
58 59 59 60 61 62 61 61 62 64 64 63 62 59 60 62 63 60 59 62 62 61 60 56 53 51 48 46 44 45 44 43 43 41 46 48 49 47 48 47 47 49 51
55 55 57 57 57 56 56 57 57 57 56 57 58 59 60 63 62 61 60 62 62 61 60 59 56 52 51 49 45 42 44 44 44 42 42 45 48 47 47 47 47 48 50
52 52 52 53 54 53 52 52 52 53 52 52 53 53 55 59 60 61 60 61 61 60 60 60 58 55 52 51 49 48 42 42 46 45 43 43 46 47 46 46 47 48 49
50 49 49 48 48 48 48 48 48 48 49 49 49 49 50 51 52 54 57 61 62 62 63 62 61 59 56 54 55 51 48 47 48 48 46 44 45 47 46 45 46 47 48
49 48 46 45 44 43 42 43 44 44 45 45 45 45 46 47 49 50 51 51 52 51 50 50 52 53 52 50 49 48 47 49 52 50 50 47 45 48 46 45 44 46 47
47 47 46 44 42 41 42 40 39 39 39 41 42 43 43 44 44 45 47 48 48 47 47 46 45 46 48 49 44 41 40 46 47 48 51 49 47 46 46 45 46 44 46

GFSGL_sfc_30mbdewp_234.txt.gz
Dewpoint
66 66 67 68 68 68 66 66 68 68 70 71 71 71 70 72 73 74 70 65 61 61 58 53 51 53 44 42 45 48 49 49 46 49 50 54 54 55 54 56 53 54 54
66 68 68 68 69 68 68 66 66 67 69 70 71 71 70 70 73 74 71 65 62 61 56 51 49 45 45 53 50 54 53 52 51 50 53 50 54 54 55 56 53 52 54
66 67 68 69 70 70 69 69 67 67 68 68 70 70 69 70 72 74 71 66 62 59 54 50 48 46 55 54 54 51 50 51 50 48 48 50 51 53 53 56 55 55 53
66 67 68 69 70 70 70 70 70 68 67 67 68 69 69 71 73 74 71 65 61 58 54 49 45 51 55 54 53 53 53 49 49 47 47 48 49 52 53 53 54 52 53
66 67 67 68 68 69 69 70 70 69 67 66 66 67 70 72 73 74 70 64 59 57 51 43 48 55 55 55 51 54 53 50 48 46 46 49 50 50 51 52 52 51 53
66 67 68 69 68 69 69 69 70 70 69 66 66 66 70 70 72 72 69 64 59 55 43 46 53 54 55 55 54 54 55 54 52 50 49 51 52 51 51 51 53 51 50
68 68 68 69 69 70 70 70 70 70 70 68 66 67 70 71 71 68 65 64 59 50 45 49 47 51 53 52 53 53 53 52 52 52 52 52 52 53 52 52 53 50 50
68 69 69 70 70 70 71 71 71 71 71 70 69 69 71 71 68 64 62 64 57 51 49 49 46 53 53 52 51 52 52 52 53 51 53 53 52 53 54 53 53 51 52
68 69 69 70 70 70 70 71 71 71 71 72 71 72 72 71 64 60 62 63 55 50 49 48 50 52 52 50 49 50 52 51 51 52 52 52 52 52 52 52 52 50 49
68 68 70 71 71 71 71 72 72 72 72 71 72 72 72 73 60 57 64 62 54 47 49 50 50 49 48 47 50 51 50 51 52 54 54 54 54 53 53 52 50 49 48
69 70 71 71 72 72 72 73 73 73 71 72 71 72 73 74 62 56 62 61 54 47 50 47 44 49 44 45 49 51 51 52 51 54 51 52 52 52 52 53 52 50 49
70 69 70 71 72 71 73 73 73 73 73 72 72 72 74 74 66 54 58 58 50 48 50 48 45 47 45 45 48 47 47 49 50 50 50 51 51 52 52 53 54 54 53
69 70 70 70 69 70 73 72 73 73 72 71 70 70 73 73 67 56 53 51 47 48 49 52 47 44 46 47 49 46 47 48 49 49 49 51 52 53 52 53 54 53 53
67 66 66 66 68 68 67 66 67 69 70 69 68 70 70 71 70 62 52 50 50 53 53 51 48 46 48 49 51 47 48 44 49 49 50 51 53 51 50 51 51 49 49
66 66 67 66 67 67 67 66 65 64 61 63 69 69 68 69 69 65 58 53 51 53 55 54 50 49 48 48 47 46 45 43 50 51 50 50 51 50 49 50 51 50 50
66 64 64 67 66 66 65 63 60 62 61 61 58 66 70 69 66 61 56 53 52 55 54 54 53 49 46 45 45 45 44 42 47 50 50 49 50 49 49 49 51 51 51
65 66 67 64 60 63 63 61 60 62 61 60 56 57 66 68 61 57 53 52 53 53 53 54 53 49 45 43 43 42 43 41 47 50 50 49 50 50 49 49 49 50 51
64 62 65 66 68 63 61 61 68 65 65 66 59 55 57 56 54 53 53 54 54 54 57 56 57 53 44 41 40 41 41 43 43 48 49 49 48 50 49 48 49 49 50
62 61 63 66 66 67 68 68 67 67 65 62 60 58 52 51 56 58 58 61 57 56 59 58 57 56 46 41 40 41 43 42 41 45 48 49 48 49 49 48 48 49 49
61 60 61 63 63 63 65 66 65 65 64 64 61 56 58 61 56 56 59 62 61 60 60 59 58 56 53 43 42 43 44 42 42 44 45 49 49 48 48 49 48 49 49
58 60 60 60 59 60 60 60 61 61 62 61 60 60 60 62 63 62 62 62 62 62 62 61 58 57 56 49 44 44 43 42 41 41 43 45 48 47 47 47 48 48 48
54 55 57 57 56 55 56 56 56 56 57 57 58 60 60 62 62 62 62 62 64 63 63 60 58 57 55 51 47 43 41 41 41 39 42 42 44 47 47 47 47 48 48
51 51 52 52 52 53 52 51 52 52 52 52 52 52 54 55 58 62 62 63 63 63 62 61 60 60 60 56 49 46 41 41 43 41 40 41 42 42 46 47 46 47 48
49 47 47 46 46 47 48 48 48 47 48 48 48 48 49 50 52 52 54 57 59 59 61 62 61 60 60 58 53 50 43 43 45 44 43 42 41 43 41 44 46 47 48
46 46 45 43 43 43 43 43 44 45 45 45 44 45 45 46 46 48 49 49 48 48 48 49 55 56 56 53 52 51 49 46 49 48 47 45 44 45 41 40 42 46 48
43 44 44 43 42 41 41 41 39 38 40 41 41 42 42 43 43 43 43 43 43 43 43 43 44 45 46 45 45 44 44 47 50 48 50 49 47 47 45 43 41 40 46

GFSGL_sfc_30mbdewp_240.txt.gz
Dewpoint
72 72 72 73 73 73 72 69 68 70 70 71 71 72 71 71 72 74 74 70 68 65 61 54 53 52 56 57 57 56 54 54 52 55 57 58 58 57 57 57 57 55 56
71 72 72 73 73 73 73 71 70 70 71 71 72 72 73 72 71 74 73 70 68 66 58 54 51 56 60 58 56 57 57 55 53 53 55 56 57 57 57 57 56 55 55
70 71 72 73 73 73 74 74 72 71 71 71 72 72 72 73 71 73 74 71 69 63 58 53 50 59 58 58 58 58 57 57 56 53 54 56 55 57 57 58 57 56 55
69 71 72 73 74 74 75 75 74 73 71 71 71 73 73 73 72 73 74 70 68 62 56 52 54 60 60 57 58 58 59 55 55 53 53 53 53 55 56 54 53 54 54
69 70 71 73 74 74 74 74 74 74 73 72 71 71 72 72 70 73 73 71 67 60 54 55 59 57 55 54 54 55 57 55 54 53 53 52 52 53 54 54 52 52 53
70 70 72 73 73 73 74 74 74 74 74 74 72 70 70 69 65 72 74 70 66 60 56 57 57 54 54 53 54 54 54 54 56 54 53 53 53 53 55 53 52 51 50
68 70 71 73 73 74 74 74 74 74 74 74 74 71 69 70 69 73 72 70 66 58 58 55 54 51 53 53 54 55 54 54 56 55 52 52 53 54 55 52 51 50 51
70 70 71 72 72 73 74 74 74 74 74 74 74 73 71 70 70 71 70 69 66 57 57 56 56 54 55 57 58 54 54 55 55 55 53 53 54 54 56 53 52 52 52
70 71 71 72 72 73 73 74 75 75 75 75 75 74 71 71 69 69 70 69 63 57 57 57 58 58 52 51 55 56 53 53 54 53 53 53 54 55 54 53 50 49 49
71 70 72 73 73 73 73 74 75 75 75 74 74 74 72 73 67 68 70 69 62 57 57 58 57 57 51 50 56 54 56 55 54 55 55 55 55 53 55 55 52 49 48
71 73 73 73 73 73 73 75 75 75 74 74 73 73 72 73 68 65 67 69 62 58 55 56 55 53 48 47 51 58 57 56 55 58 56 54 53 53 55 55 54 52 50
70 72 72 73 72 72 74 75 75 75 75 74 73 73 73 74 70 65 65 65 63 59 56 54 54 49 43 45 51 45 43 50 56 56 54 53 52 54 55 55 56 55 55
70 72 72 73 73 75 75 74 74 75 74 73 73 72 71 74 70 65 61 62 61 60 57 55 51 46 42 45 49 47 45 48 53 55 53 53 53 55 55 54 54 54 55
68 68 69 69 70 73 73 73 72 73 73 73 71 71 72 72 71 67 61 60 59 56 54 52 48 46 44 48 48 50 47 51 56 55 54 54 55 54 53 53 52 52 52
66 67 67 67 67 68 68 67 69 65 65 69 70 69 69 71 72 67 64 60 57 57 54 50 48 46 46 50 51 50 49 52 55 55 54 54 54 54 52 53 52 52 51
65 65 65 64 66 66 66 67 60 60 59 58 58 58 68 67 68 65 63 57 56 54 52 51 48 47 47 48 52 51 49 47 56 54 55 53 53 53 53 53 53 51 51
64 63 64 66 66 63 63 63 62 62 58 57 56 55 51 49 61 58 57 53 53 57 56 54 53 50 48 48 50 50 50 45 54 55 53 53 53 53 53 53 53 52 52
62 61 63 65 66 67 67 65 64 64 64 63 55 56 51 49 49 57 55 54 55 57 59 58 57 57 54 57 51 50 49 49 53 56 54 53 53 51 53 52 52 52 52
61 60 62 63 65 65 66 66 67 67 66 63 59 59 54 52 52 50 56 59 57 58 59 59 60 59 57 59 56 51 50 49 49 54 54 53 53 51 52 52 52 52 53
58 58 58 62 61 61 62 62 64 64 64 62 60 59 56 56 58 56 60 60 59 59 59 60 61 60 59 60 58 57 53 48 47 54 54 54 53 52 50 50 51 51 52
54 56 56 58 58 59 58 57 58 60 61 60 58 55 55 61 60 58 59 62 61 61 61 61 61 61 61 60 59 56 51 47 46 48 53 54 53 51 52 50 51 50 50
50 51 52 53 54 54 53 54 53 53 53 54 54 54 55 57 58 58 59 61 62 63 62 62 63 62 62 60 58 55 48 47 45 46 49 52 53 52 51 51 49 49 50
48 47 48 48 49 50 50 48 48 49 49 49 49 49 49 50 50 50 50 51 52 54 61 64 64 63 62 61 60 59 55 50 48 46 46 48 52 51 51 49 49 48 50
46 45 45 45 43 44 45 46 45 44 44 45 45 45 44 44 44 44 45 46 46 46 47 49 51 59 61 61 58 55 51 49 49 50 45 47 47 48 51 50 48 48 49
44 43 42 41 40 40 41 41 41 42 42 42 42 42 42 42 41 42 42 43 42 42 42 42 43 45 47 49 51 50 49 51 48 47 51 47 47 46 46 49 49 48 48
41 41 41 41 40 41 41 40 39 39 39 40 40 41 41 41 41 41 41 41 41 40 40 41 40 40 41 41 41 43 48 51 49 49 54 52 52 53 46 43 46 48 48

GFSGL_sfc_30mbdewp_246.txt.gz
Dewpoint
71 71 73 73 72 72 70 69 71 69 69 70 70 70 71 72 73 71 69 65 60 55 55 53 58 56 55 56 56 56 56 54 54 56 57 58 58 57 57 56 55 55 55
72 72 72 73 73 72 71 70 71 69 69 71 71 70 71 72 74 71 69 67 60 55 51 54 57 58 58 58 56 55 55 56 54 53 55 56 56 56 56 54 54 54 55
73 73 73 73 73 72 72 72 71 70 68 69 71 70 70 71 72 73 70 68 61 56 51 55 57 57 56 56 55 54 54 53 53 54 54 55 55 56 54 54 53 53 54
67 72 73 73 73 73 73 72 72 71 69 69 70 70 70 70 72 73 70 68 60 55 52 60 58 56 53 55 54 54 54 54 52 52 52 53 55 56 54 51 51 52 53
63 69 72 73 73 73 73 73 73 73 71 69 69 71 72 71 72 72 70 63 56 55 58 54 56 54 55 55 54 54 54 53 51 50 50 52 54 54 52 52 50 50 52
71 71 72 72 73 73 73 74 73 73 73 72 70 69 69 71 73 72 70 61 55 57 54 55 57 55 55 55 56 54 53 52 51 50 50 50 53 53 52 50 50 50 49
70 71 72 72 73 73 73 74 74 74 74 73 72 71 70 70 70 70 69 60 56 56 53 53 53 54 54 55 56 56 55 54 52 51 50 51 52 54 53 51 50 49 50
72 71 73 73 73 73 74 74 74 74 74 74 73 73 71 71 70 68 68 61 57 55 51 50 53 53 54 55 55 53 52 52 52 52 52 52 54 54 53 51 51 50 51
69 70 71 72 73 72 74 74 74 74 74 74 74 74 73 72 69 67 67 61 58 54 52 51 52 53 54 54 53 52 52 52 53 54 55 56 55 53 52 51 49 47 47
66 68 70 72 73 72 72 73 74 75 74 74 74 74 74 72 67 67 67 62 58 57 54 54 51 53 55 54 52 52 51 52 53 53 53 54 54 52 53 51 49 47 47
66 68 70 72 72 72 72 73 73 73 73 73 73 73 73 72 67 66 66 63 60 57 56 54 53 54 54 56 53 52 52 53 54 53 52 54 55 55 55 53 51 48 48
66 68 69 71 72 73 72 72 73 73 73 72 72 71 73 73 69 65 65 64 61 58 57 57 54 55 52 56 56 55 53 54 55 52 52 52 52 52 53 54 53 52 51
66 67 67 69 71 71 72 72 72 72 72 71 71 71 72 73 70 65 64 62 61 60 59 59 56 54 50 53 52 56 54 57 54 51 51 51 51 52 53 53 53 53 53
65 65 66 67 68 68 69 68 68 69 69 69 69 69 70 71 70 65 62 61 61 61 57 56 55 51 48 52 47 49 53 56 53 51 51 52 52 52 51 52 52 51 51
63 62 64 66 67 67 63 62 64 59 60 64 64 65 66 67 64 59 64 64 62 60 56 53 51 49 47 49 49 47 46 53 53 52 52 52 52 51 51 51 51 51 50
61 61 63 65 66 67 66 63 56 55 55 56 55 60 60 58 56 60 61 63 61 56 55 53 51 50 48 47 46 48 47 48 54 53 52 53 52 50 50 51 50 50 50
61 59 62 64 64 65 66 67 64 56 52 52 53 53 52 53 54 55 61 59 54 56 56 55 53 50 49 48 48 47 47 52 54 53 53 53 52 51 51 51 50 49 49
59 58 59 62 61 63 63 65 67 65 63 60 54 54 53 52 52 52 53 56 56 58 56 55 54 52 51 50 51 50 50 51 54 54 53 53 53 52 52 51 51 49 49
56 56 58 60 59 59 60 61 63 63 60 59 58 58 57 56 55 52 58 58 57 59 58 57 56 54 53 49 50 54 53 50 55 54 54 53 53 52 52 52 51 51 50
53 53 56 55 56 56 56 56 57 59 57 56 54 52 54 58 59 60 59 58 58 59 60 59 58 56 54 52 51 55 56 53 53 55 54 53 53 52 52 52 51 52 51
50 51 52 54 52 52 52 52 53 53 53 52 51 49 51 58 58 58 59 60 60 60 59 59 59 58 58 57 55 58 58 55 51 56 55 54 53 52 52 52 52 52 53
49 48 49 51 50 49 49 49 49 49 49 49 49 48 48 50 50 50 50 50 50 51 53 60 61 61 61 60 59 58 58 55 50 52 56 54 53 53 53 52 52 52 53
46 46 46 46 48 47 46 45 46 46 46 45 45 45 45 45 45 45 46 46 46 46 47 49 54 59 62 63 62 61 59 57 51 51 55 55 53 53 54 53 53 52 52
44 44 44 44 44 44 44 44 44 43 43 43 43 43 43 43 43 43 43 44 44 44 44 44 46 47 51 55 56 56 55 54 50 51 53 56 54 53 53 53 53 52 52
43 43 44 43 43 43 43 43 42 42 42 42 42 42 42 42 42 42 43 43 43 43 42 42 42 43 44 46 48 50 47 47 50 53 53 54 53 54 53 52 52 51 52
42 43 43 43 43 42 42 41 41 42 41 41 42 42 42 42 42 42 42 42 42 42 42 42 42 41 41 41 41 42 46 45 52 55 56 55 54 53 52 52 52 51 52